| time (UTC) | temp F | wind direction | speed knots | gust knots | rain 1hr in | rain 24hr in | rain mn in | humidity % | barometer mb |
| 20260510032539 | 58 | 221 | 0.0 | 0.0 | 0.00 | 0.00 | 0.00 | 69 | 1009.0 |
| 20260510032012 | 58 | 221 | 0.0 | 0.9 | 0.00 | 0.00 | 0.00 | 69 | 1008.9 |
| 20260510031539 | 58 | 221 | 0.0 | 0.9 | 0.00 | 0.00 | 0.00 | 70 | 1008.9 |
| 20260510031001 | 58 | 221 | 0.0 | 0.9 | 0.00 | 0.00 | 0.00 | 68 | 1008.9 |
| 20260510030526 | 59 | 221 | 0.0 | 0.0 | 0.00 | 0.00 | 0.00 | 68 | 1008.8 |
| 20260510030049 | 59 | 221 | 0.0 | 0.0 | 0.00 | 0.00 | 0.00 | 68 | 1008.8 |
| 20260510025512 | 59 | 217 | 0.0 | 0.0 | 0.00 | 0.00 | 0.00 | 68 | 1008.8 |
| 20260510025038 | 59 | 217 | 0.0 | 0.0 | 0.00 | 0.00 | 0.00 | 69 | 1008.7 |
| 20260510024502 | 59 | 217 | 0.0 | 0.0 | 0.00 | 0.00 | 0.00 | 68 | 1008.7 |
| 20260510024037 | 60 | 217 | 0.0 | 0.0 | 0.00 | 0.00 | 0.00 | 68 | 1008.7 |
| 20260510023502 | 60 | 217 | 0.0 | 0.0 | 0.00 | 0.00 | 0.00 | 67 | 1008.5 |
| 20260510023031 | 60 | 217 | 0.0 | 0.0 | 0.00 | 0.00 | 0.00 | 67 | 1008.6 |
| 20260510022554 | 60 | 217 | 0.0 | 0.0 | 0.00 | 0.00 | 0.00 | 66 | 1008.5 |
| 20260510022026 | 61 | 217 | 0.0 | 0.9 | 0.00 | 0.00 | 0.00 | 66 | 1008.6 |
| 20260510021552 | 61 | 217 | 0.0 | 0.9 | 0.00 | 0.00 | 0.00 | 65 | 1008.5 |
| 20260510021012 | 62 | 217 | 0.0 | 0.0 | 0.00 | 0.00 | 0.00 | 64 | 1008.3 |
| 20260510020548 | 62 | 217 | 0.0 | 0.0 | 0.00 | 0.00 | 0.00 | 63 | 1008.3 |
| 20260510020010 | 63 | 217 | 0.0 | 0.0 | 0.00 | 0.00 | 0.00 | 64 | 1008.1 |
| 20260510015534 | 63 | 217 | 0.0 | 0.0 | 0.00 | 0.00 | 0.00 | 63 | 1008.0 |
| 20260510015007 | 63 | 217 | 0.0 | 0.0 | 0.00 | 0.00 | 0.00 | 60 | 1007.9 |
| 20260510014543 | 63 | 217 | 0.0 | 0.0 | 0.00 | 0.00 | 0.00 | 60 | 1007.8 |
| 20260510014005 | 63 | 217 | 0.0 | 0.0 | 0.00 | 0.00 | 0.00 | 59 | 1007.7 |
| 20260510013530 | 64 | 217 | 0.0 | 0.0 | 0.00 | 0.00 | 0.00 | 60 | 1007.6 |
| 20260510013054 | 64 | 217 | 0.0 | 0.0 | 0.00 | 0.00 | 0.00 | 59 | 1007.5 |
| 20260510012519 | 64 | 216 | 0.0 | 0.0 | 0.00 | 0.00 | 0.00 | 60 | 1007.4 |
| 20260510012047 | 64 | 216 | 0.0 | 0.0 | 0.00 | 0.00 | 0.00 | 60 | 1007.2 |
| 20260510011509 | 64 | 216 | 0.0 | 0.0 | 0.00 | 0.00 | 0.00 | 62 | 1007.2 |
| 20260510011034 | 64 | 216 | 0.0 | 0.9 | 0.00 | 0.00 | 0.00 | 62 | 1007.1 |
| 20260510010550 | 64 | 216 | 0.0 | 0.9 | 0.00 | 0.00 | 0.00 | 61 | 1007.1 |
| 20260510010015 | 64 | 216 | 0.0 | 0.9 | 0.00 | 0.00 | 0.00 | 61 | 1007.0 |
| 20260510005535 | 64 | 216 | 0.0 | 0.9 | 0.00 | 0.00 | 0.00 | 60 | 1006.9 |
| 20260510005059 | 65 | 216 | 0.0 | 0.9 | 0.00 | 0.00 | 0.00 | 60 | 1006.8 |
| 20260510004531 | 65 | 216 | 0.0 | 0.9 | 0.00 | 0.00 | 0.00 | 60 | 1006.7 |
| 20260510004057 | 65 | 216 | 0.0 | 0.9 | 0.00 | 0.00 | 0.00 | 59 | 1006.6 |
| 20260510003520 | 65 | 216 | 0.0 | 0.9 | 0.00 | 0.00 | 0.00 | 59 | 1006.5 |
| 20260510003057 | 65 | 214 | 0.0 | 0.9 | 0.00 | 0.00 | 0.00 | 59 | 1006.4 |
| 20260510002509 | 65 | 214 | 0.0 | 0.9 | 0.00 | 0.00 | 0.00 | 59 | 1006.2 |
| 20260510002032 | 65 | 214 | 0.0 | 0.9 | 0.00 | 0.00 | 0.00 | 59 | 1006.2 |
| 20260510001558 | 65 | 214 | 0.0 | 0.9 | 0.00 | 0.00 | 0.00 | 59 | 1006.3 |
| 20260510001029 | 66 | 214 | 0.0 | 0.0 | 0.00 | 0.00 | 0.00 | 58 | 1006.1 |
| 20260510000556 | 66 | 214 | 0.0 | 0.0 | 0.00 | 0.00 | 0.00 | 59 | 1006.1 |
| 20260510000016 | 66 | 214 | 0.0 | 0.0 | 0.00 | 0.00 | 0.00 | 58 | 1006.0 |
| 20260509235540 | 66 | 214 | 0.0 | 0.0 | 0.00 | 0.00 | 0.00 | 57 | 1006.0 |
| 20260509235057 | 67 | 214 | 0.0 | 0.0 | 0.00 | 0.00 | 0.00 | 57 | 1006.1 |
| 20260509234535 | 67 | 214 | 0.0 | 0.9 | 0.00 | 0.00 | 0.00 | 57 | 1006.0 |
| 20260509234045 | 67 | 214 | 0.0 | 0.9 | 0.00 | 0.00 | 0.00 | 57 | 1006.1 |
| 20260509233506 | 67 | 214 | 0.0 | 0.0 | 0.00 | 0.00 | 0.00 | 57 | 1006.0 |
| 20260509233041 | 67 | 214 | 0.0 | 0.0 | 0.00 | 0.00 | 0.00 | 56 | 1006.0 |
| 20260509232503 | 68 | 214 | 0.0 | 0.0 | 0.00 | 0.00 | 0.00 | 56 | 1006.0 |
| 20260509232028 | 68 | 214 | 0.0 | 0.0 | 0.00 | 0.00 | 0.00 | 56 | 1006.0 |
| 20260509231601 | 68 | 214 | 0.0 | 0.0 | 0.00 | 0.00 | 0.00 | 56 | 1005.9 |
| 20260509231030 | 68 | 214 | 0.0 | 0.0 | 0.00 | 0.00 | 0.00 | 55 | 1005.9 |
| 20260509230551 | 68 | 214 | 0.0 | 0.9 | 0.00 | 0.00 | 0.00 | 54 | 1005.9 |
| 20260509230014 | 68 | 214 | 0.0 | 0.9 | 0.00 | 0.00 | 0.00 | 54 | 1005.8 |
| 20260509225549 | 68 | 214 | 0.0 | 0.9 | 0.00 | 0.00 | 0.00 | 54 | 1005.8 |
| 20260509225010 | 68 | 214 | 0.0 | 0.9 | 0.00 | 0.00 | 0.00 | 54 | 1005.7 |
| 20260509224546 | 69 | 214 | 0.0 | 0.9 | 0.00 | 0.00 | 0.00 | 54 | 1005.9 |
| 20260509224008 | 69 | 217 | 0.0 | 0.9 | 0.00 | 0.00 | 0.00 | 53 | 1005.9 |
| 20260509223543 | 69 | 217 | 0.0 | 0.9 | 0.00 | 0.00 | 0.00 | 53 | 1006.0 |
| 20260509223005 | 69 | 217 | 0.0 | 1.7 | 0.00 | 0.00 | 0.00 | 52 | 1005.9 |
| 20260509222529 | 69 | 217 | 0.0 | 1.7 | 0.00 | 0.00 | 0.00 | 52 | 1005.9 |
| 20260509222043 | 69 | 217 | 0.0 | 0.9 | 0.00 | 0.00 | 0.00 | 52 | 1005.9 |
| 20260509221507 | 69 | 213 | 0.0 | 1.7 | 0.00 | 0.00 | 0.00 | 52 | 1005.9 |
| 20260509221032 | 69 | 213 | 0.0 | 1.7 | 0.00 | 0.00 | 0.00 | 52 | 1005.9 |
| 20260509220557 | 69 | 212 | 0.0 | 0.9 | 0.00 | 0.00 | 0.00 | 53 | 1005.9 |
| 20260509220027 | 69 | 212 | 0.0 | 0.0 | 0.00 | 0.00 | 0.00 | 52 | 1005.8 |
| 20260509215553 | 69 | 212 | 0.0 | 1.7 | 0.00 | 0.00 | 0.00 | 51 | 1005.8 |
| 20260509215017 | 69 | 212 | 0.0 | 1.7 | 0.00 | 0.00 | 0.00 | 53 | 1005.8 |
| 20260509214543 | 69 | 211 | 0.0 | 0.9 | 0.00 | 0.00 | 0.00 | 53 | 1005.8 |
| 20260509214017 | 69 | 211 | 0.0 | 0.9 | 0.00 | 0.00 | 0.00 | 54 | 1005.8 |
| 20260509213537 | 69 | 211 | 0.0 | 0.9 | 0.00 | 0.00 | 0.00 | 54 | 1005.8 |
| 20260509213003 | 69 | 211 | 0.0 | 0.9 | 0.00 | 0.00 | 0.00 | 53 | 1005.7 |
| 20260509212536 | 69 | 211 | 0.0 | 1.7 | 0.00 | 0.00 | 0.00 | 54 | 1005.7 |
| 20260509212001 | 69 | 211 | 0.0 | 1.7 | 0.00 | 0.00 | 0.00 | 53 | 1005.7 |
| 20260509211526 | 69 | 211 | 0.0 | 1.7 | 0.00 | 0.00 | 0.00 | 52 | 1005.6 |
| 20260509211051 | 69 | 211 | 0.0 | 0.9 | 0.00 | 0.00 | 0.00 | 53 | 1005.4 |
| 20260509210525 | 69 | 210 | 0.0 | 0.9 | 0.00 | 0.00 | 0.00 | 52 | 1005.6 |
| 20260509210057 | 69 | 210 | 0.0 | 0.9 | 0.00 | 0.00 | 0.00 | 52 | 1005.5 |
| 20260509205511 | 69 | 211 | 0.0 | 0.9 | 0.00 | 0.00 | 0.00 | 51 | 1005.4 |
| 20260509205039 | 69 | 211 | 0.0 | 1.7 | 0.00 | 0.00 | 0.00 | 49 | 1005.4 |
| 20260509204556 | 70 | 211 | 0.0 | 1.7 | 0.00 | 0.00 | 0.00 | 49 | 1005.5 |
| 20260509204017 | 70 | 211 | 0.0 | 2.6 | 0.00 | 0.00 | 0.00 | 48 | 1005.4 |
| 20260509203540 | 70 | 188 | 0.0 | 0.9 | 0.00 | 0.00 | 0.00 | 50 | 1005.3 |
| 20260509203118 | 70 | 184 | 0.0 | 0.9 | 0.00 | 0.00 | 0.00 | 51 | 1005.3 |
| 20260509202535 | 70 | 184 | 0.0 | 0.9 | 0.00 | 0.00 | 0.00 | 52 | 1005.4 |
| 20260509202101 | 70 | 184 | 0.0 | 0.9 | 0.00 | 0.00 | 0.00 | 52 | 1005.4 |
| 20260509201522 | 70 | 182 | 0.0 | 0.9 | 0.00 | 0.00 | 0.00 | 48 | 1005.4 |
| 20260509201045 | 71 | 182 | 0.0 | 2.6 | 0.00 | 0.00 | 0.00 | 48 | 1005.4 |
| 20260509200507 | 70 | 163 | 0.9 | 2.6 | 0.00 | 0.00 | 0.00 | 49 | 1005.3 |
| 20260509200031 | 70 | 167 | 0.0 | 1.7 | 0.00 | 0.00 | 0.00 | 47 | 1005.4 |
| 20260509195559 | 70 | 162 | 0.0 | 1.7 | 0.00 | 0.00 | 0.00 | 49 | 1005.5 |
| 20260509195019 | 70 | 162 | 0.0 | 2.6 | 0.00 | 0.00 | 0.00 | 49 | 1005.6 |
| 20260509194542 | 71 | 160 | 0.0 | 2.6 | 0.00 | 0.00 | 0.00 | 48 | 1005.7 |
| 20260509194002 | 71 | 169 | 0.0 | 2.6 | 0.00 | 0.00 | 0.00 | 50 | 1005.7 |
| 20260509193525 | 70 | 190 | 0.0 | 1.7 | 0.00 | 0.00 | 0.00 | 49 | 1005.8 |
| 20260509193051 | 71 | 189 | 0.0 | 1.7 | 0.00 | 0.00 | 0.00 | 49 | 1005.8 |
| 20260509192520 | 71 | 198 | 0.0 | 2.6 | 0.00 | 0.00 | 0.00 | 48 | 1006.0 |
| 20260509192047 | 71 | 171 | 0.0 | 2.6 | 0.00 | 0.00 | 0.00 | 49 | 1006.0 |
| 20260509191510 | 71 | 209 | 0.0 | 1.7 | 0.00 | 0.00 | 0.00 | 47 | 1006.0 |
| 20260509191034 | 70 | 233 | 0.0 | 2.6 | 0.00 | 0.00 | 0.00 | 49 | 1006.0 |
| 20260509190549 | 71 | 305 | 0.0 | 2.6 | 0.00 | 0.00 | 0.00 | 46 | 1006.0 |
| 20260509190013 | 71 | 188 | 0.9 | 4.3 | 0.00 | 0.00 | 0.00 | 47 | 1006.0 |
| 20260509185536 | 71 | 190 | 0.0 | 4.3 | 0.00 | 0.00 | 0.00 | 47 | 1006.1 |
| 20260509185057 | 71 | 153 | 0.9 | 4.3 | 0.00 | 0.00 | 0.00 | 48 | 1006.1 |
| 20260509184525 | 71 | 213 | 0.0 | 3.5 | 0.00 | 0.00 | 0.00 | 47 | 1006.2 |
| 20260509184041 | 71 | 198 | 0.0 | 2.6 | 0.00 | 0.00 | 0.00 | 50 | 1006.3 |
| 20260509183510 | 70 | 339 | 0.0 | 2.6 | 0.00 | 0.00 | 0.00 | 52 | 1006.3 |
| 20260509183032 | 70 | 202 | 0.0 | 1.7 | 0.00 | 0.00 | 0.00 | 51 | 1006.4 |
| 20260509182554 | 69 | 192 | 0.0 | 2.6 | 0.00 | 0.00 | 0.00 | 53 | 1006.4 |
| 20260509182015 | 69 | 229 | 0.0 | 1.7 | 0.00 | 0.00 | 0.00 | 54 | 1006.5 |
| 20260509181540 | 68 | 209 | 0.0 | 4.3 | 0.00 | 0.00 | 0.00 | 54 | 1006.6 |
| 20260509181100 | 68 | 162 | 0.9 | 4.3 | 0.00 | 0.00 | 0.00 | 56 | 1006.7 |
| 20260509180520 | 67 | 227 | 0.0 | 1.7 | 0.00 | 0.00 | 0.00 | 57 | 1006.8 |
| 20260509180109 | 66 | 229 | 0.0 | 1.7 | 0.00 | 0.00 | 0.00 | 58 | 1006.9 |
| 20260509175504 | 66 | 230 | 0.0 | 2.6 | 0.00 | 0.00 | 0.00 | 60 | 1007.0 |
| 20260509175028 | 66 | 230 | 0.0 | 2.6 | 0.00 | 0.00 | 0.00 | 58 | 1007.0 |
| 20260509174553 | 66 | 230 | 0.0 | 1.7 | 0.00 | 0.00 | 0.00 | 59 | 1007.2 |
| 20260509174012 | 66 | 230 | 0.0 | 1.7 | 0.00 | 0.00 | 0.00 | 58 | 1007.3 |
| 20260509173537 | 65 | 229 | 0.0 | 1.7 | 0.00 | 0.00 | 0.00 | 59 | 1007.3 |
| 20260509173111 | 65 | 229 | 0.0 | 1.7 | 0.00 | 0.00 | 0.00 | 60 | 1007.4 |
| 20260509172527 | 65 | 229 | 0.0 | 1.7 | 0.00 | 0.00 | 0.00 | 56 | 1007.4 |
| 20260509172050 | 65 | 212 | 0.0 | 1.7 | 0.00 | 0.00 | 0.00 | 57 | 1007.6 |
| 20260509171513 | 66 | 187 | 0.0 | 0.9 | 0.00 | 0.00 | 0.00 | 59 | 1007.5 |
| 20260509171047 | 66 | 186 | 0.0 | 0.9 | 0.00 | 0.00 | 0.00 | 58 | 1007.5 |
| 20260509170510 | 66 | 185 | 0.0 | 1.7 | 0.00 | 0.00 | 0.00 | 56 | 1007.5 |
| 20260509170046 | 66 | 182 | 0.0 | 1.7 | 0.00 | 0.00 | 0.00 | 58 | 1007.6 |
| 20260509165502 | 66 | 179 | 0.0 | 0.9 | 0.00 | 0.00 | 0.00 | 58 | 1007.6 |
| 20260509165027 | 66 | 179 | 0.0 | 1.7 | 0.00 | 0.00 | 0.00 | 57 | 1007.6 |
| 20260509164553 | 66 | 179 | 0.0 | 2.6 | 0.00 | 0.00 | 0.00 | 60 | 1007.6 |
| 20260509164022 | 66 | 176 | 0.0 | 2.6 | 0.00 | 0.00 | 0.00 | 58 | 1007.6 |
| 20260509163544 | 66 | 17 | 0.0 | 1.7 | 0.00 | 0.00 | 0.00 | 59 | 1007.7 |
| 20260509163005 | 65 | 215 | 0.0 | 0.9 | 0.00 | 0.00 | 0.00 | 59 | 1007.7 |
| 20260509162539 | 65 | 215 | 0.0 | 0.9 | 0.00 | 0.00 | 0.00 | 59 | 1007.6 |
| 20260509162003 | 66 | 215 | 0.0 | 1.7 | 0.00 | 0.00 | 0.00 | 57 | 1007.5 |
| 20260509161527 | 65 | 215 | 0.0 | 1.7 | 0.00 | 0.00 | 0.00 | 58 | 1007.6 |
| 20260509161051 | 65 | 198 | 0.0 | 1.7 | 0.00 | 0.00 | 0.00 | 57 | 1007.6 |
| 20260509160514 | 65 | 192 | 0.0 | 1.7 | 0.00 | 0.00 | 0.00 | 59 | 1007.7 |
| 20260509160037 | 65 | 192 | 0.0 | 1.7 | 0.00 | 0.00 | 0.00 | 60 | 1007.7 |
| 20260509155558 | 64 | 195 | 0.0 | 2.6 | 0.00 | 0.00 | 0.00 | 62 | 1007.7 |
| 20260509155015 | 64 | 192 | 0.0 | 2.6 | 0.00 | 0.00 | 0.00 | 61 | 1007.6 |
| 20260509154540 | 64 | 220 | 0.0 | 1.7 | 0.00 | 0.00 | 0.00 | 64 | 1007.7 |
| 20260509154007 | 64 | 220 | 0.0 | 1.7 | 0.00 | 0.00 | 0.00 | 61 | 1007.7 |
| 20260509153528 | 64 | 220 | 0.0 | 3.5 | 0.00 | 0.00 | 0.00 | 61 | 1007.8 |
| 20260509153108 | 64 | 220 | 0.0 | 3.5 | 0.00 | 0.00 | 0.00 | 61 | 1007.8 |
| 20260509152517 | 63 | 222 | 0.0 | 1.7 | 0.00 | 0.00 | 0.00 | 65 | 1007.7 |
| 20260509152039 | 63 | 222 | 0.0 | 1.7 | 0.00 | 0.00 | 0.00 | 65 | 1007.7 |
| 20260509151510 | 63 | 222 | 0.0 | 1.7 | 0.00 | 0.00 | 0.00 | 64 | 1007.6 |
| 20260509151034 | 63 | 222 | 0.0 | 0.9 | 0.00 | 0.00 | 0.00 | 66 | 1007.6 |
| 20260509150604 | 63 | 222 | 0.0 | 1.7 | 0.00 | 0.00 | 0.00 | 64 | 1007.5 |
| 20260509150023 | 63 | 211 | 0.0 | 2.6 | 0.00 | 0.00 | 0.00 | 65 | 1007.6 |
| 20260509145550 | 63 | 211 | 0.0 | 2.6 | 0.00 | 0.00 | 0.00 | 63 | 1007.7 |
| 20260509145011 | 63 | 178 | 0.0 | 1.7 | 0.00 | 0.00 | 0.00 | 64 | 1007.8 |
| 20260509144536 | 63 | 179 | 0.0 | 1.7 | 0.00 | 0.00 | 0.00 | 64 | 1007.7 |
| 20260509144008 | 63 | 178 | 0.0 | 2.6 | 0.00 | 0.00 | 0.00 | 64 | 1007.6 |
| 20260509143533 | 62 | 178 | 0.0 | 2.6 | 0.00 | 0.00 | 0.00 | 65 | 1007.6 |
| 20260509143105 | 62 | 198 | 0.0 | 1.7 | 0.00 | 0.00 | 0.00 | 66 | 1007.5 |
| 20260509142512 | 61 | 174 | 0.0 | 1.7 | 0.00 | 0.00 | 0.00 | 67 | 1007.6 |
| 20260509142032 | 60 | 170 | 0.0 | 2.6 | 0.00 | 0.00 | 0.00 | 67 | 1007.7 |
| 20260509141554 | 60 | 170 | 0.0 | 2.6 | 0.00 | 0.00 | 0.00 | 66 | 1007.8 |
| 20260509141015 | 60 | 231 | 0.0 | 1.7 | 0.00 | 0.00 | 0.00 | 68 | 1008.0 |
| 20260509140537 | 60 | 231 | 0.0 | 1.7 | 0.00 | 0.00 | 0.00 | 68 | 1008.2 |
| 20260509140006 | 59 | 231 | 0.0 | 1.7 | 0.00 | 0.00 | 0.00 | 67 | 1008.3 |
| 20260509135531 | 59 | 231 | 0.0 | 1.7 | 0.00 | 0.00 | 0.00 | 69 | 1008.5 |
| 20260509135050 | 59 | 231 | 0.0 | 1.7 | 0.00 | 0.00 | 0.00 | 69 | 1008.5 |
| 20260509134524 | 58 | 231 | 0.0 | 1.7 | 0.00 | 0.00 | 0.00 | 68 | 1008.6 |
| 20260509134034 | 58 | 232 | 0.0 | 0.9 | 0.00 | 0.00 | 0.00 | 69 | 1008.8 |
| 20260509133506 | 58 | 232 | 0.0 | 0.9 | 0.00 | 0.00 | 0.00 | 69 | 1008.8 |
| 20260509133030 | 57 | 232 | 0.0 | 1.7 | 0.00 | 0.00 | 0.00 | 68 | 1008.8 |
| 20260509132551 | 57 | 232 | 0.0 | 1.7 | 0.00 | 0.00 | 0.00 | 66 | 1008.9 |
| 20260509132013 | 57 | 232 | 0.0 | 1.7 | 0.00 | 0.00 | 0.00 | 68 | 1008.9 |
| 20260509131534 | 57 | 232 | 0.0 | 0.9 | 0.00 | 0.00 | 0.00 | 68 | 1008.8 |
| 20260509131003 | 57 | 232 | 0.0 | 0.9 | 0.00 | 0.00 | 0.00 | 68 | 1008.8 |
| 20260509130528 | 57 | 232 | 0.0 | 0.9 | 0.00 | 0.00 | 0.00 | 69 | 1008.8 |
| 20260509130056 | 57 | 232 | 0.0 | 0.9 | 0.00 | 0.00 | 0.00 | 68 | 1008.8 |
| 20260509125528 | 56 | 232 | 0.0 | 0.9 | 0.00 | 0.00 | 0.00 | 68 | 1008.8 |
| 20260509125049 | 56 | 232 | 0.0 | 0.9 | 0.00 | 0.00 | 0.00 | 68 | 1008.7 |
| 20260509124515 | 56 | 232 | 0.0 | 0.9 | 0.00 | 0.00 | 0.00 | 69 | 1008.7 |
| 20260509124034 | 56 | 232 | 0.0 | 0.9 | 0.00 | 0.00 | 0.00 | 69 | 1008.6 |
| 20260509123601 | 56 | 232 | 0.0 | 0.9 | 0.00 | 0.00 | 0.00 | 69 | 1008.7 |
| 20260509123021 | 56 | 232 | 0.0 | 0.9 | 0.00 | 0.00 | 0.00 | 69 | 1008.7 |
| 20260509122544 | 56 | 232 | 0.0 | 0.9 | 0.00 | 0.00 | 0.00 | 69 | 1008.7 |
| 20260509122016 | 55 | 232 | 0.0 | 0.9 | 0.00 | 0.00 | 0.00 | 69 | 1008.8 |
| 20260509121548 | 55 | 232 | 0.0 | 0.9 | 0.00 | 0.00 | 0.00 | 69 | 1008.9 |
| 20260509121003 | 55 | 232 | 0.0 | 0.9 | 0.00 | 0.00 | 0.00 | 69 | 1008.9 |
| 20260509120538 | 55 | 232 | 0.0 | 0.9 | 0.00 | 0.00 | 0.00 | 69 | 1008.8 |
| 20260509115521 | 55 | 232 | 0.0 | 0.9 | 0.00 | 0.00 | 0.00 | 68 | 1008.9 |
| 20260509115045 | 55 | 232 | 0.0 | 0.9 | 0.00 | 0.00 | 0.00 | 68 | 1008.8 |
| 20260509114507 | 55 | 232 | 0.0 | 0.9 | 0.00 | 0.00 | 0.00 | 68 | 1008.9 |
| 20260509114028 | 55 | 232 | 0.0 | 0.9 | 0.00 | 0.00 | 0.00 | 67 | 1009.0 |
| 20260509113555 | 55 | 232 | 0.0 | 0.9 | 0.00 | 0.00 | 0.00 | 67 | 1008.9 |
| 20260509113011 | 55 | 232 | 0.0 | 0.9 | 0.00 | 0.00 | 0.00 | 66 | 1008.9 |
| 20260509112536 | 55 | 232 | 0.0 | 0.0 | 0.00 | 0.00 | 0.00 | 67 | 1008.9 |
| 20260509112059 | 55 | 232 | 0.0 | 0.9 | 0.00 | 0.00 | 0.00 | 66 | 1008.9 |
| 20260509111520 | 55 | 232 | 0.0 | 0.9 | 0.00 | 0.00 | 0.00 | 65 | 1008.9 |
| 20260509111044 | 55 | 232 | 0.0 | 0.9 | 0.00 | 0.00 | 0.00 | 64 | 1008.9 |
| 20260509110504 | 55 | 232 | 0.0 | 0.9 | 0.00 | 0.00 | 0.00 | 63 | 1008.8 |
| 20260509110030 | 55 | 232 | 0.0 | 0.0 | 0.00 | 0.00 | 0.00 | 63 | 1008.8 |
| 20260509105556 | 55 | 232 | 0.0 | 0.9 | 0.00 | 0.00 | 0.00 | 62 | 1008.8 |
| 20260509105027 | 55 | 232 | 0.0 | 0.9 | 0.00 | 0.00 | 0.00 | 62 | 1008.9 |
| 20260509104606 | 55 | 232 | 0.0 | 0.9 | 0.00 | 0.00 | 0.00 | 61 | 1008.9 |
| 20260509104013 | 55 | 232 | 0.0 | 0.9 | 0.00 | 0.00 | 0.00 | 61 | 1008.8 |
| 20260509103537 | 55 | 232 | 0.0 | 0.9 | 0.00 | 0.00 | 0.00 | 61 | 1008.8 |
| 20260509103001 | 55 | 232 | 0.0 | 1.7 | 0.00 | 0.00 | 0.00 | 61 | 1008.8 |
| 20260509102527 | 55 | 232 | 0.0 | 1.7 | 0.00 | 0.00 | 0.00 | 61 | 1008.8 |
| 20260509102050 | 55 | 232 | 0.0 | 1.7 | 0.00 | 0.00 | 0.00 | 61 | 1008.9 |
| 20260509101528 | 55 | 232 | 0.0 | 1.7 | 0.00 | 0.00 | 0.00 | 60 | 1008.9 |
| 20260509101045 | 55 | 232 | 0.0 | 1.7 | 0.00 | 0.00 | 0.00 | 60 | 1008.9 |
| 20260509100507 | 55 | 232 | 0.0 | 1.7 | 0.00 | 0.00 | 0.00 | 60 | 1008.9 |
| 20260509100041 | 55 | 232 | 0.0 | 1.7 | 0.00 | 0.00 | 0.00 | 59 | 1008.9 |
| 20260509095505 | 55 | 232 | 0.0 | 1.7 | 0.00 | 0.00 | 0.00 | 59 | 1008.9 |
| 20260509095026 | 55 | 232 | 0.0 | 1.7 | 0.00 | 0.00 | 0.00 | 59 | 1008.9 |
| 20260509094551 | 55 | 232 | 0.0 | 1.7 | 0.00 | 0.00 | 0.00 | 58 | 1008.9 |
| 20260509094012 | 55 | 232 | 0.0 | 1.7 | 0.00 | 0.00 | 0.00 | 58 | 1009.0 |
| 20260509093535 | 55 | 232 | 0.0 | 1.7 | 0.00 | 0.00 | 0.00 | 58 | 1009.1 |
| 20260509093103 | 55 | 232 | 0.0 | 1.7 | 0.00 | 0.00 | 0.00 | 57 | 1009.1 |
| 20260509092520 | 55 | 232 | 0.0 | 1.7 | 0.00 | 0.00 | 0.00 | 58 | 1009.1 |
| 20260509092045 | 55 | 232 | 0.0 | 1.7 | 0.00 | 0.00 | 0.00 | 57 | 1009.1 |
| 20260509091507 | 56 | 232 | 0.0 | 1.7 | 0.00 | 0.00 | 0.00 | 57 | 1009.3 |
| 20260509091040 | 56 | 232 | 0.0 | 1.7 | 0.00 | 0.00 | 0.00 | 56 | 1009.3 |
| 20260509090559 | 56 | 232 | 0.0 | 1.7 | 0.00 | 0.00 | 0.00 | 55 | 1009.2 |
| 20260509090045 | 56 | 232 | 0.0 | 1.7 | 0.00 | 0.00 | 0.00 | 55 | 1009.1 |
| 20260509085554 | 56 | 232 | 0.0 | 2.6 | 0.00 | 0.00 | 0.00 | 55 | 1009.2 |
| 20260509085019 | 56 | 232 | 0.0 | 2.6 | 0.00 | 0.00 | 0.00 | 55 | 1009.3 |
| 20260509084544 | 56 | 232 | 0.0 | 2.6 | 0.00 | 0.00 | 0.00 | 55 | 1009.3 |
| 20260509084015 | 56 | 232 | 0.0 | 1.7 | 0.00 | 0.00 | 0.00 | 56 | 1009.2 |
| 20260509083540 | 56 | 232 | 0.0 | 1.7 | 0.00 | 0.00 | 0.00 | 56 | 1009.2 |
| 20260509083006 | 56 | 232 | 0.0 | 1.7 | 0.00 | 0.00 | 0.00 | 55 | 1009.3 |
| 20260509082533 | 56 | 232 | 0.0 | 1.7 | 0.00 | 0.00 | 0.00 | 56 | 1009.2 |
| 20260509082055 | 56 | 232 | 0.0 | 1.7 | 0.00 | 0.00 | 0.00 | 55 | 1009.2 |
| 20260509081523 | 56 | 232 | 0.0 | 1.7 | 0.00 | 0.00 | 0.00 | 56 | 1009.4 |
| 20260509081040 | 56 | 232 | 0.0 | 1.7 | 0.00 | 0.00 | 0.00 | 56 | 1009.4 |
| 20260509080503 | 56 | 232 | 0.0 | 1.7 | 0.00 | 0.00 | 0.00 | 55 | 1009.4 |
| 20260509080026 | 56 | 232 | 0.0 | 1.7 | 0.00 | 0.00 | 0.00 | 55 | 1009.4 |
| 20260509075550 | 56 | 232 | 0.0 | 1.7 | 0.00 | 0.00 | 0.00 | 55 | 1009.4 |
| 20260509075022 | 56 | 232 | 0.0 | 1.7 | 0.00 | 0.00 | 0.00 | 54 | 1009.5 |
| 20260509074551 | 56 | 232 | 0.0 | 1.7 | 0.00 | 0.00 | 0.00 | 54 | 1009.6 |
| 20260509074011 | 57 | 232 | 0.0 | 1.7 | 0.00 | 0.00 | 0.00 | 53 | 1009.6 |
| 20260509073533 | 57 | 232 | 0.0 | 1.7 | 0.00 | 0.00 | 0.00 | 53 | 1009.6 |
| 20260509073059 | 57 | 229 | 0.0 | 1.7 | 0.00 | 0.00 | 0.00 | 53 | 1009.8 |
| 20260509072521 | 57 | 229 | 0.0 | 2.6 | 0.00 | 0.00 | 0.00 | 53 | 1009.8 |
| 20260509072044 | 57 | 229 | 0.0 | 2.6 | 0.00 | 0.00 | 0.00 | 53 | 1009.8 |
| 20260509071519 | 57 | 229 | 0.0 | 2.6 | 0.00 | 0.00 | 0.00 | 53 | 1009.9 |
| 20260509071042 | 57 | 229 | 0.0 | 2.6 | 0.00 | 0.00 | 0.00 | 52 | 1009.9 |
| 20260509070508 | 57 | 228 | 0.9 | 2.6 | 0.00 | 0.00 | 0.00 | 52 | 1009.9 |
| 20260509070043 | 57 | 229 | 0.0 | 3.5 | 0.00 | 0.00 | 0.00 | 52 | 1009.9 |
| 20260509065603 | 57 | 229 | 0.9 | 3.5 | 0.00 | 0.00 | 0.00 | 52 | 1009.9 |
| 20260509065024 | 57 | 229 | 0.9 | 2.6 | 0.00 | 0.00 | 0.00 | 52 | 1009.9 |
| 20260509064547 | 57 | 229 | 0.9 | 2.6 | 0.00 | 0.00 | 0.00 | 52 | 1010.0 |
| 20260509064014 | 57 | 229 | 0.0 | 2.6 | 0.00 | 0.00 | 0.00 | 52 | 1010.0 |
| 20260509063534 | 57 | 229 | 0.9 | 2.6 | 0.00 | 0.00 | 0.00 | 52 | 1010.1 |
| 20260509063112 | 57 | 229 | 0.0 | 2.6 | 0.00 | 0.00 | 0.00 | 52 | 1010.1 |
| 20260509062530 | 57 | 232 | 0.0 | 1.7 | 0.00 | 0.00 | 0.00 | 53 | 1010.2 |
| 20260509062055 | 57 | 232 | 0.0 | 1.7 | 0.00 | 0.00 | 0.00 | 53 | 1010.3 |
| 20260509061515 | 57 | 232 | 0.0 | 1.7 | 0.00 | 0.00 | 0.00 | 53 | 1010.4 |
| 20260509061037 | 57 | 232 | 0.0 | 1.7 | 0.00 | 0.00 | 0.00 | 53 | 1010.4 |
| 20260509060501 | 56 | 232 | 0.0 | 1.7 | 0.00 | 0.00 | 0.00 | 53 | 1010.3 |
| 20260509060042 | 56 | 232 | 0.0 | 1.7 | 0.00 | 0.00 | 0.00 | 54 | 1010.3 |
| 20260509055548 | 56 | 232 | 0.0 | 1.7 | 0.00 | 0.00 | 0.00 | 53 | 1010.4 |
| 20260509055016 | 56 | 232 | 0.0 | 1.7 | 0.00 | 0.00 | 0.00 | 54 | 1010.4 |
| 20260509054538 | 56 | 232 | 0.0 | 2.6 | 0.00 | 0.00 | 0.00 | 53 | 1010.4 |
| 20260509054003 | 56 | 232 | 0.0 | 2.6 | 0.00 | 0.00 | 0.00 | 53 | 1010.5 |
| 20260509053537 | 57 | 233 | 0.0 | 2.6 | 0.00 | 0.00 | 0.00 | 52 | 1010.5 |
| 20260509053103 | 57 | 233 | 0.9 | 1.7 | 0.00 | 0.00 | 0.00 | 52 | 1010.7 |
| 20260509052522 | 57 | 233 | 0.0 | 1.7 | 0.00 | 0.00 | 0.00 | 52 | 1010.5 |
| 20260509052047 | 57 | 233 | 0.0 | 1.7 | 0.00 | 0.00 | 0.00 | 52 | 1010.5 |
| 20260509051510 | 56 | 233 | 0.0 | 1.7 | 0.00 | 0.00 | 0.00 | 53 | 1010.6 |
| 20260509051033 | 56 | 232 | 0.0 | 2.6 | 0.00 | 0.00 | 0.00 | 53 | 1010.6 |
| 20260509050552 | 56 | 232 | 0.0 | 2.6 | 0.00 | 0.00 | 0.00 | 53 | 1010.6 |
| 20260509050013 | 56 | 219 | 0.0 | 3.5 | 0.00 | 0.00 | 0.00 | 53 | 1010.5 |
| 20260509045538 | 56 | 219 | 0.0 | 3.5 | 0.00 | 0.00 | 0.00 | 53 | 1010.5 |
| 20260509045013 | 56 | 215 | 0.0 | 2.6 | 0.00 | 0.00 | 0.00 | 53 | 1010.4 |
| 20260509044537 | 56 | 214 | 0.0 | 2.6 | 0.00 | 0.00 | 0.00 | 54 | 1010.4 |
| 20260509044103 | 56 | 213 | 0.0 | 2.6 | 0.00 | 0.00 | 0.00 | 54 | 1010.4 |
| 20260509043521 | 56 | 212 | 0.0 | 1.7 | 0.00 | 0.00 | 0.00 | 54 | 1010.4 |
| 20260509043049 | 56 | 212 | 0.0 | 1.7 | 0.00 | 0.00 | 0.00 | 54 | 1010.5 |
| 20260509042512 | 56 | 212 | 0.0 | 1.7 | 0.00 | 0.00 | 0.00 | 54 | 1010.5 |
| 20260509042032 | 56 | 211 | 0.0 | 0.9 | 0.00 | 0.00 | 0.00 | 54 | 1010.5 |
| 20260509041504 | 56 | 211 | 0.0 | 1.7 | 0.00 | 0.00 | 0.00 | 54 | 1010.4 |
| 20260509041030 | 56 | 211 | 0.0 | 1.7 | 0.00 | 0.00 | 0.00 | 54 | 1010.4 |
| 20260509040554 | 56 | 211 | 0.0 | 1.7 | 0.00 | 0.00 | 0.00 | 54 | 1010.4 |
| 20260509040027 | 56 | 210 | 0.0 | 1.7 | 0.00 | 0.00 | 0.00 | 54 | 1010.4 |
| 20260509035551 | 56 | 209 | 0.0 | 1.7 | 0.00 | 0.00 | 0.00 | 54 | 1010.4 |
| 20260509035013 | 57 | 209 | 0.0 | 0.9 | 0.00 | 0.00 | 0.00 | 55 | 1010.5 |
| 20260509034538 | 57 | 209 | 0.0 | 1.7 | 0.00 | 0.00 | 0.00 | 54 | 1010.5 |
| 20260509034003 | 57 | 209 | 0.0 | 1.7 | 0.00 | 0.00 | 0.00 | 54 | 1010.5 |
| 20260509033530 | 57 | 208 | 0.0 | 1.7 | 0.00 | 0.00 | 0.00 | 55 | 1010.5 |
| 20260509033052 | 57 | 208 | 0.0 | 1.7 | 0.00 | 0.00 | 0.00 | 55 | 1010.5 |